Date,TemperatureHighF,TemperatureAvgF,TemperatureLowF,DewpointHighF,DewpointAvgF,DewpointLowF,HumidityHigh,HumidityAvg,HumidityLow,PressureMaxIn,PressureMinIn,WindSpeedMaxMPH,WindSpeedAvgMPH,GustSpeedMaxMPH,PrecipitationSumIn
2013-1-1,37.7,34.7,22.7,31.2,25.6,12.9,80,69,54,29.97,29.80,20,2,21,0.01
2013-1-2,28.6,23.7,17.7,21.2,16.5,12.6,86,74,65,30.13,29.95,14,1,18,0.00
2013-1-3,29.4,20.2,6.0,21.0,12.9,1.5,83,73,57,30.16,30.01,9,0,11,0.00
2013-1-4,37.6,32.5,26.3,27.4,24.6,20.8,83,72,59,30.02,29.89,16,2,20,0.00
2013-1-5,40.7,34.1,29.8,27.0,25.1,21.7,83,70,53,30.26,29.94,18,2,24,0.00
2013-1-6,44.2,36.8,30.9,32.6,30.1,25.8,89,77,57,30.20,29.95,12,0,16,0.00
2013-1-7,41.1,36.5,28.8,33.8,28.7,24.2,89,74,55,30.37,30.01,13,1,17,0.00
2013-1-8,47.1,36.4,27.5,33.0,29.6,24.1,94,77,56,30.39,30.30,9,0,10,0.00
2013-1-9,45.4,39.1,30.8,39.5,33.8,28.1,91,81,67,30.37,30.10,12,1,20,0.00
2013-1-10,44.9,40.6,36.1,34.9,27.0,23.7,73,58,44,30.54,30.18,15,1,19,0.00
2013-1-11,43.2,39.0,33.1,42.2,33.2,26.9,96,80,63,30.53,30.11,0,0,0,0.43
2013-1-12,49.4,45.4,42.8,47.5,44.4,41.7,99,96,93,30.18,30.09,0,0,5,0.07
2013-1-13,48.6,46.0,42.1,47.6,45.2,41.5,99,97,95,30.15,30.00,7,0,9,0.02
2013-1-14,55.7,46.4,36.0,53.8,43.3,30.2,100,89,72,30.30,29.91,13,2,16,0.03
2013-1-15,37.6,35.3,31.9,33.4,29.9,26.5,93,81,68,30.33,30.21,13,1,14,0.03
2013-1-16,35.9,33.9,31.1,34.6,32.5,26.5,100,95,71,30.22,29.79,12,0,13,0.00
2013-1-17,42.1,36.1,27.3,34.7,30.3,17.2,96,80,64,30.09,29.88,18,2,18,0.29
2013-1-18,27.2,23.6,19.6,18.2,11.7,5.6,76,60,44,30.43,30.02,15,2,19,0.00
2013-1-19,43.6,36.9,25.3,32.1,26.1,14.7,79,65,55,30.35,29.88,14,1,17,0.00
2013-1-20,49.4,39.4,26.2,33.1,26.1,10.2,86,61,33,29.99,29.64,21,4,22,0.00
2013-1-21,34.9,28.0,23.2,25.1,16.7,8.7,92,64,47,30.06,29.78,13,0,21,0.00
2013-1-22,23.4,17.0,9.9,19.5,4.0,-4.9,85,57,43,30.12,29.77,23,3,26,0.00
2013-1-23,17.7,11.8,7.5,3.6,0.6,-3.1,76,61,43,30.17,30.09,18,1,20,0.00
2013-1-24,19.8,12.7,5.2,4.3,1.8,-1.4,76,62,43,30.30,30.08,19,2,26,0.00
2013-1-25,29.9,19.1,11.0,18.4,9.5,3.7,91,68,41,30.35,30.02,14,0,15,0.00
2013-1-26,24.6,18.2,12.2,17.2,11.1,6.8,96,75,52,30.31,30.00,16,2,18,0.00
2013-1-27,32.0,22.9,14.6,15.1,11.5,8.2,91,64,39,30.47,30.30,12,0,15,0.00
2013-1-28,35.6,31.3,23.6,34.6,25.0,9.3,97,78,52,30.45,29.97,10,0,11,0.00
2013-1-29,50.4,41.7,34.9,44.1,39.0,34.4,100,90,76,30.15,29.97,8,0,8,0.24
2013-1-30,55.7,49.3,40.6,54.6,48.4,39.0,100,97,94,30.09,29.37,11,0,15,0.22
2013-1-31,58.2,56.9,54.9,57.8,56.6,54.8,100,99,98,29.37,29.05,24,4,33,0.12
2013-2-17,28.9,21.4,14.7,21.5,5.2,0.0,75,50,35,29.89,29.62,21,6,159,0.00
2013-2-18,33.4,23.6,14.6,14.6,9.0,4.9,72,54,40,30.18,29.89,16,3,159,0.00
2013-2-19,47.4,37.7,27.9,41.8,29.1,14.7,100,73,50,30.17,29.64,23,1,26,0.31
2013-2-20,36.1,29.3,22.9,30.4,18.5,11.3,82,64,47,29.91,29.66,22,5,31,0.00
2013-2-21,32.7,25.2,21.9,17.9,16.0,13.8,84,68,51,30.29,29.89,21,4,23,0.00
2013-2-22,44.9,32.9,22.1,30.6,24.5,17.6,93,73,47,30.39,30.25,16,2,21,0.00
2013-2-23,43.2,39.0,36.7,40.9,36.2,30.7,99,90,77,30.26,29.82,9,0,12,0.12
2013-2-24,42.3,36.4,31.6,39.4,34.8,28.4,100,94,78,29.94,29.74,15,2,19,0.02
2013-2-25,43.4,36.7,29.4,31.4,28.5,25.4,89,73,54,30.24,29.94,14,1,16,0.00
2013-2-26,47.9,39.2,32.0,34.9,31.0,27.2,94,74,51,30.30,29.95,16,1,17,0.10
2013-2-27,45.5,41.0,35.9,45.0,40.3,34.4,100,98,93,29.96,29.50,18,2,21,0.84
2013-2-28,48.3,41.4,37.0,44.3,38.3,34.5,99,89,64,29.61,29.54,9,0,9,0.03
2013-3-1,43.9,37.9,34.2,36.8,32.9,27.8,100,83,60,29.76,29.58,15,2,16,0.01
2013-3-2,38.4,34.2,28.6,28.9,27.6,26.3,95,77,65,29.76,29.68,13,2,14,0.00
2013-3-3,37.6,30.0,26.7,30.0,24.8,19.3,95,81,54,29.72,29.64,15,3,22,0.00
2013-3-4,41.0,31.9,26.6,24.4,22.5,0.0,84,69,49,34.25,29.71,16,3,46,6.47
2013-3-5,46.2,36.8,28.7,30.2,27.1,23.4,88,69,49,30.02,29.86,15,2,19,0.00
2013-3-6,43.8,39.4,36.0,40.0,33.4,29.5,92,79,67,29.99,29.90,17,4,22,0.01
2013-3-7,36.3,33.5,30.9,33.9,31.6,28.5,100,93,77,30.07,29.95,20,6,23,0.02
2013-3-8,38.9,33.2,28.7,33.0,30.0,27.3,100,89,67,30.19,29.97,27,9,29,0.08
2013-3-9,50.7,40.1,30.9,28.4,24.7,18.6,83,57,30,30.31,30.18,21,5,29,1.43
2013-3-10,58.7,42.3,31.6,36.0,32.0,24.1,93,69,38,30.38,30.28,9,0,12,0.00
2013-3-11,99.2,46.3,4.3,95.7,40.9,0.0,94,83,54,31.09,30.09,34,1,242,8.32
2013-3-12,55.2,50.7,0.2,54.6,49.4,-1.3,99,95,91,30.09,29.68,16,2,242,1.17
2013-3-13,49.6,40.7,35.7,39.3,33.2,24.7,96,78,42,29.87,29.77,14,2,242,28.08
2013-3-14,35.8,30.9,24.8,32.1,18.2,8.8,93,61,36,29.90,29.82,22,4,242,8.19
2013-3-15,43.1,33.3,26.9,34.3,20.6,-48.9,85,61,2,29.92,29.70,15,2,218,2.40
2013-3-16,42.6,34.8,29.6,31.4,25.5,19.0,93,70,43,29.90,29.74,14,1,218,0.02
2013-3-17,38.2,31.8,24.8,30.7,20.6,11.1,94,66,36,30.29,29.89,13,1,218,0.48
2013-3-18,44.1,31.5,23.4,31.1,16.6,9.4,92,56,34,30.40,30.04,9,0,218,0.48
2013-3-19,41.2,35.7,33.1,38.4,33.8,26.1,99,93,73,30.05,29.68,13,2,218,0.29
2013-3-20,42.3,33.9,28.4,26.6,23.0,19.5,84,65,42,29.84,29.76,16,3,218,7.44
2013-3-21,40.8,33.7,29.3,27.5,22.0,14.0,81,63,38,29.82,29.61,9,1,218,7.44
2013-3-22,40.4,31.6,25.4,27.0,21.1,14.8,85,65,48,29.84,29.68,16,2,218,1.24
2013-3-23,43.5,35.8,31.2,26.8,24.0,20.0,78,63,41,29.89,29.78,21,4,25,0.00
2013-3-24,45.6,36.4,29.1,26.7,23.3,-17.3,82,60,8,29.92,29.72,14,1,243,0.03
2013-3-25,80.6,40.1,0.5,47.9,26.4,-28.0,81,59,5,31.04,1.13,175,2,243,6.39
2013-3-26,48.7,40.8,35.2,32.5,29.8,25.9,79,66,45,29.84,29.58,14,1,223,0.00
2013-3-27,52.9,40.8,32.2,31.6,26.7,22.9,77,58,35,29.95,29.84,13,1,223,0.00
2013-3-28,48.7,40.7,35.4,37.8,32.9,30.8,86,74,57,30.09,29.93,13,2,223,0.00
2013-3-29,55.3,44.5,37.1,33.2,30.8,27.0,78,60,35,30.12,30.04,12,1,223,0.00
2013-3-30,57.9,44.1,34.2,33.3,28.1,19.7,92,58,23,30.15,30.06,13,0,223,0.00
2013-3-31,60.2,46.5,37.5,44.7,29.1,21.3,93,52,30,30.13,29.68,14,1,223,0.15
2013-4-1,61.2,45.9,33.9,48.2,38.7,16.0,98,79,40,29.88,29.61,26,2,223,0.01
2013-4-2,42.2,34.1,28.8,21.9,16.7,10.9,74,50,31,30.04,29.88,20,3,223,3.84
2013-4-3,46.2,35.1,29.6,19.5,16.0,12.1,64,47,28,30.26,30.02,18,4,223,1.76
2013-4-4,148.8,41.2,28.7,99.9,22.3,-8.9,82,49,9,30.36,30.06,13,1,239,1.79
2013-4-5,61.8,46.6,39.2,33.3,26.0,15.8,72,48,19,30.06,29.71,14,2,239,0.00
2013-4-6,61.1,40.5,31.0,24.7,16.0,5.5,70,41,13,30.30,29.97,20,2,239,0.00
2013-4-7,63.4,46.8,37.1,44.1,33.3,24.4,85,61,35,30.29,30.00,18,1,239,0.00
2013-4-8,77.1,55.6,44.4,44.2,41.4,33.9,96,66,22,30.10,29.98,11,0,239,0.00
2013-4-9,77.1,63.4,51.0,52.8,44.0,35.1,95,54,22,30.02,29.93,21,2,239,0.00
2013-4-10,74.3,59.8,50.5,58.7,50.0,40.5,96,73,47,29.98,29.84,20,1,239,0.29
2013-4-11,121.6,52.0,0.3,57.3,45.6,-4.1,100,81,1,30.07,29.82,11,2,248,13.29
2013-4-12,63.6,43.9,39.4,42.4,39.6,0.0,100,86,1,96.89,27.21,16,2,248,0.47
2013-4-13,58.9,47.4,38.3,44.3,37.7,33.2,100,73,45,29.95,29.75,9,1,248,0.02
2013-4-14,54.3,47.5,42.1,37.7,31.8,26.2,72,55,36,30.22,29.95,17,2,248,2.16
2013-4-15,70.9,53.7,38.6,37.1,32.8,27.7,80,49,26,30.38,30.22,10,0,86,0.07
2013-4-16,71.3,54.1,45.1,54.5,44.0,34.1,93,69,47,30.38,30.12,12,1,86,0.02
2013-4-17,70.6,57.4,49.6,55.8,43.2,32.2,98,65,25,30.31,30.13,19,1,86,0.01
2013-4-18,68.3,54.6,45.3,50.7,39.0,32.0,87,58,34,30.36,30.13,15,1,86,0.72
2013-4-19,77.4,62.2,54.4,63.2,58.0,50.7,98,87,59,30.13,29.67,17,2,86,0.28
2013-4-20,62.7,51.2,42.0,61.7,40.0,24.8,100,70,31,30.29,29.67,18,2,86,0.23
2013-4-21,56.2,42.2,33.3,25.5,22.4,19.9,71,47,27,30.62,30.29,15,1,86,14.40
2013-4-22,68.2,48.7,37.4,37.2,31.2,22.6,83,54,26,30.68,30.51,11,1,86,14.40
2013-4-23,53.4,43.5,37.7,42.8,37.9,32.7,92,81,66,30.52,30.11,11,1,86,14.40
2013-4-24,80.3,54.0,40.3,50.8,44.4,39.8,99,75,32,30.12,29.83,10,2,86,14.40
2013-4-25,74.4,55.2,45.1,53.1,36.1,18.4,95,56,13,30.27,29.86,17,2,86,0.01
2013-4-26,70.7,51.7,42.0,36.1,31.1,26.2,70,47,21,30.43,30.27,12,1,86,14.64
2013-4-27,77.2,55.2,44.3,32.5,28.0,16.8,58,39,14,30.44,30.29,11,1,86,14.64
2013-4-28,78.2,57.0,44.2,42.4,36.4,30.4,77,49,23,30.32,30.21,13,0,86,14.64
2013-4-29,61.0,55.6,51.9,51.1,43.3,34.1,84,64,47,30.26,30.21,10,0,86,0.02
2013-4-30,81.7,60.3,51.2,46.1,37.4,25.4,79,50,13,30.35,30.23,12,0,86,15.12
2013-5-1,84.5,58.6,43.9,44.0,34.1,26.4,70,44,16,30.50,30.35,10,0,86,15.12
2013-5-2,88.5,62.1,47.5,47.2,41.8,32.1,92,56,15,30.49,30.32,10,0,86,15.12
2013-5-3,83.8,62.2,50.6,44.8,38.7,30.3,70,45,16,30.47,30.35,9,0,86,15.12
2013-5-4,85.3,59.9,47.3,46.8,43.1,34.6,92,61,18,30.39,30.23,10,0,86,15.12
2013-5-5,81.5,56.3,44.6,43.5,41.1,31.7,90,63,19,30.31,30.21,8,0,86,15.12
2013-5-6,86.2,57.9,44.2,51.2,46.0,41.6,93,69,28,30.28,30.16,8,0,86,15.12
2013-5-7,88.0,63.7,50.1,58.6,51.1,45.1,94,69,26,30.19,30.11,8,0,86,15.12
2013-5-8,66.8,62.1,56.5,64.3,59.3,55.1,96,91,84,30.16,30.01,11,0,86,0.44
2013-5-9,70.1,58.8,53.9,65.6,57.1,52.7,97,94,78,30.04,29.91,10,0,86,0.69
2013-5-10,83.5,66.5,52.6,61.7,54.7,50.1,99,71,33,30.02,29.92,12,0,86,42.24
2013-5-11,70.7,64.2,61.3,66.5,61.5,56.8,96,91,77,29.93,29.72,8,0,86,0.36
2013-5-12,68.5,60.2,48.4,61.8,48.5,22.8,97,71,22,29.92,29.66,15,1,86,50.88
2013-5-13,60.7,48.6,41.2,39.5,33.1,27.5,86,57,29,30.10,29.91,12,1,86,0.01
2013-5-14,70.0,48.2,38.2,36.9,33.0,24.3,91,62,20,30.12,30.02,10,0,86,51.12
2013-5-15,77.1,53.5,41.2,54.3,43.5,33.3,93,70,42,30.08,29.70,11,0,86,0.02
2013-5-16,87.7,67.4,55.0,56.5,46.8,34.0,95,57,16,29.87,29.73,13,1,86,17.20
2013-5-17,76.2,62.5,54.2,46.2,40.9,0.0,68,47,1,34.78,29.87,8,0,248,0.00
2013-5-18,128.4,61.3,0.2,99.9,42.1,-46.7,90,55,1,60.47,0.00,175,1,248,3.39
2013-5-19,134.4,57.4,0.1,99.9,49.6,-41.7,100,84,1,32.51,20.42,191,1,239,5.77
2013-5-20,89.3,67.1,57.4,67.5,61.1,56.7,98,84,44,30.20,29.99,10,0,239,0.48
2013-5-21,96.0,75.0,62.9,69.8,65.0,61.1,96,75,36,30.01,29.86,8,0,239,0.48
2013-5-22,92.1,73.3,63.0,68.3,65.1,59.3,90,77,42,29.96,29.87,8,0,239,0.48
2013-5-23,76.3,69.1,66.1,71.8,66.9,65.1,98,93,80,29.92,29.79,8,0,239,3.35
2013-5-24,66.1,57.7,43.5,65.6,57.1,42.5,100,98,91,29.95,29.69,13,1,239,0.42
2013-5-25,48.2,44.6,42.1,47.7,43.8,41.6,100,97,88,29.96,29.86,16,5,239,0.64
2013-5-26,63.1,50.7,44.3,45.5,41.2,35.9,93,73,41,30.19,29.90,19,3,239,106.32
2013-5-27,82.4,59.0,47.7,45.9,40.1,32.1,83,55,18,30.24,30.13,10,0,239,106.32
2013-5-28,73.2,58.1,50.8,58.8,49.4,41.9,95,75,40,30.24,30.16,4,0,239,0.26
2013-5-29,87.5,67.2,58.6,69.6,62.3,57.2,96,86,52,30.16,30.03,9,0,239,0.01
2013-5-30,97.8,77.7,65.8,69.1,65.8,60.3,95,72,30,30.16,30.09,7,0,239,112.80
2013-5-31,100.1,80.0,68.4,68.4,64.2,57.7,87,63,29,30.16,30.03,7,0,239,112.80
2013-6-1,98.8,78.6,66.9,69.0,65.2,61.9,92,68,32,30.06,29.94,8,0,239,112.80
2013-6-2,93.1,78.5,70.7,69.3,67.0,64.0,92,70,41,29.95,29.79,11,1,239,112.80
2013-6-3,82.3,72.7,61.9,69.8,65.0,51.9,96,78,53,29.93,29.83,6,0,239,0.94
2013-6-4,81.5,62.6,52.1,51.6,45.4,34.8,82,57,19,30.14,29.93,9,1,239,0.00
2013-6-5,86.9,65.1,54.1,51.3,44.4,37.6,67,49,24,30.24,30.14,7,0,239,0.00
2013-6-6,74.5,61.6,53.1,58.8,52.9,48.2,94,75,46,30.18,30.06,8,0,239,0.21
2013-6-7,62.2,59.8,57.1,61.2,58.8,56.0,99,97,94,30.06,29.71,8,0,239,2.35
2013-6-8,79.1,63.0,54.5,66.4,59.0,54.5,100,88,58,30.08,29.65,8,0,239,0.55
2013-6-9,89.8,68.3,57.8,61.4,57.9,54.0,96,74,31,30.21,30.08,8,0,239,0.00
2013-6-10,74.9,64.7,60.7,66.5,61.0,57.8,98,88,73,30.20,29.89,6,0,239,1.32
2013-6-11,79.9,67.1,60.7,69.9,62.9,56.5,98,88,60,29.90,29.63,13,1,239,0.26
2013-6-12,78.0,65.9,59.5,58.8,55.4,50.4,88,71,41,29.89,29.69,13,2,239,0.00
2013-6-13,60.8,58.2,56.6,59.1,55.4,54.1,94,90,86,29.87,29.78,0,0,239,0.09
2013-6-15,86.5,74.9,61.7,55.8,50.7,45.4,78,44,27,30.02,29.95,7,1,13,0.00
2013-6-16,83.3,67.4,56.1,64.2,56.1,51.2,89,69,42,30.02,29.79,10,0,14,0.00
2013-6-17,94.9,73.7,64.0,66.4,61.9,50.8,94,70,23,29.96,29.87,10,0,14,0.00
2013-6-18,88.9,69.6,62.9,67.6,62.4,59.7,94,80,42,29.95,29.86,7,0,14,0.04
2013-6-19,84.9,65.6,56.9,62.0,54.1,41.4,96,72,26,30.20,29.93,8,1,14,0.96
2013-6-20,91.4,67.0,53.5,58.4,53.2,49.4,90,66,28,30.29,30.20,7,0,14,0.96
2013-6-21,91.8,75.8,58.3,62.3,58.3,55.5,92,59,32,30.32,30.26,9,0,14,0.96
2013-6-22,93.0,72.5,60.9,61.9,58.5,56.4,90,65,32,30.30,30.16,9,0,14,0.96
2013-6-23,98.2,78.6,64.2,69.5,62.9,57.8,88,62,33,30.22,30.09,13,0,14,0.96
2013-6-24,98.8,81.0,72.4,71.1,68.6,60.4,91,70,34,30.10,29.97,10,0,14,0.12
2013-6-30,89.0,80.6,74.7,75.2,71.9,69.4,87,75,58,29.96,29.85,6,0,49,0.01
2013-7-1,78.8,74.5,72.0,74.1,71.6,70.0,95,91,85,30.09,29.95,8,0,49,0.56
2013-7-2,88.3,76.3,72.6,75.6,72.8,71.2,96,89,62,30.21,30.09,9,0,49,0.13
2013-7-3,91.2,76.9,71.7,73.9,71.6,70.2,95,85,52,30.28,30.20,8,0,49,16.80
2013-7-4,96.4,81.4,75.0,74.5,72.4,69.0,94,77,42,30.29,30.19,8,0,49,16.80
2013-7-5,100.1,83.2,73.2,73.4,70.8,65.4,93,70,34,30.25,30.13,10,0,49,16.80
2013-7-6,100.8,82.6,74.7,73.9,71.5,66.7,91,72,36,30.18,30.08,8,0,49,16.80
2013-7-7,102.5,84.4,75.9,75.8,72.5,68.0,88,70,36,30.10,29.97,8,0,49,0.01
2013-7-8,97.8,80.1,72.2,70.7,67.7,64.8,89,68,35,30.09,30.00,8,0,49,0.01
2013-7-9,95.0,78.0,69.4,73.8,69.1,65.3,92,76,40,30.12,30.04,5,0,49,0.10
2013-7-10,87.4,77.8,73.1,79.0,73.1,70.5,92,86,63,30.06,29.84,12,0,49,0.45
2013-7-11,90.4,76.7,71.9,73.7,69.5,60.8,96,81,46,29.98,29.84,9,0,49,0.04
2013-7-12,85.9,73.2,1.6,66.2,62.5,-4.2,89,72,1,30.18,29.51,23,0,223,28.16
2013-7-13,82.3,71.4,1.2,73.0,67.6,-45.2,93,88,9,36.28,30.18,5,0,223,0.10
2013-7-14,98.0,81.2,74.3,75.4,72.6,68.4,95,78,42,30.37,30.28,7,0,223,0.03
2013-7-15,97.7,82.5,75.5,73.5,70.9,68.0,88,70,40,30.29,30.19,8,0,223,6.00
2013-7-16,97.0,81.3,73.7,71.5,66.7,59.8,85,64,31,30.26,30.19,8,1,223,6.00
2013-7-17,102.0,84.2,76.1,72.8,68.6,60.7,83,63,30,30.26,30.10,5,0,223,6.00
2013-7-18,102.5,85.1,76.2,75.4,71.2,65.4,84,66,31,30.12,30.01,4,0,223,6.00
2013-7-19,99.8,85.8,75.5,74.4,71.9,67.7,90,66,37,30.02,29.83,15,0,223,6.00
2013-7-20,96.9,83.9,76.8,74.2,71.1,65.4,87,67,38,29.90,29.77,9,0,223,6.00
2013-7-21,96.9,79.9,72.5,69.9,64.4,58.3,80,62,30,30.02,29.89,5,0,223,6.00
2013-7-22,91.3,77.4,69.5,75.5,69.9,64.8,92,79,49,30.02,29.86,5,0,223,0.18
2013-7-23,90.1,76.4,72.5,76.1,72.4,69.3,96,88,54,29.86,29.60,14,0,223,1.30
2013-7-24,81.6,72.8,62.2,71.1,66.1,52.4,96,81,53,30.00,29.66,14,0,223,42.00
2013-7-25,70.5,64.0,58.8,61.1,55.3,48.9,85,74,61,30.11,29.99,10,1,223,42.00
2013-7-26,90.5,70.3,63.2,65.1,61.0,57.8,91,74,37,30.08,30.03,6,0,223,42.00
2013-7-27,89.0,72.4,62.4,65.4,62.1,56.5,94,74,38,30.10,30.01,9,0,223,42.00
2013-7-28,83.0,71.8,66.9,68.9,65.7,62.6,95,82,54,30.04,29.96,6,0,223,0.21
2013-7-29,87.5,74.5,67.4,70.7,65.5,55.5,95,77,37,30.14,30.00,7,0,223,0.01
2013-7-30,84.5,70.1,62.0,62.4,58.2,54.1,88,68,39,30.20,30.13,8,0,126,0.02
2013-7-31,87.0,71.0,61.6,63.1,58.9,54.5,90,69,36,30.20,0.00,4,0,146,0.00
2013-8-1,77.0,68.0,65.2,67.9,64.5,61.6,96,89,65,30.09,29.88,6,0,146,0.43
2013-8-2,84.5,71.8,65.4,66.9,64.6,57.3,97,81,43,29.94,29.83,6,0,146,10.32
2013-8-3,85.8,69.9,64.7,68.2,64.0,60.5,96,83,49,29.95,29.87,8,0,146,0.05
2013-8-4,80.5,67.7,59.2,70.9,60.0,53.0,94,78,39,30.00,29.88,13,0,146,0.20
2013-8-5,85.0,64.3,54.8,58.5,52.8,45.8,95,71,28,30.09,29.99,9,0,146,16.32
2013-8-6,89.3,69.2,55.9,59.2,54.9,51.2,87,64,31,30.17,30.08,5,0,146,16.32
2013-8-7,79.4,68.6,61.2,67.8,61.7,58.0,92,79,58,30.19,30.10,7,0,146,16.33
2013-8-8,88.5,73.9,69.7,73.7,69.8,67.7,95,88,56,30.11,30.05,7,0,146,0.23
2013-8-9,82.5,74.4,71.0,76.7,72.4,69.7,97,93,80,30.06,29.84,9,0,146,2.28
2013-8-10,85.5,72.5,64.7,70.5,63.7,53.5,97,77,38,30.09,29.90,8,0,146,76.80
2013-8-11,85.9,68.9,56.5,63.4,56.1,50.1,89,66,37,30.16,30.06,8,0,146,76.80
2013-8-12,91.0,73.0,64.6,65.2,61.4,53.5,94,71,35,30.08,29.97,4,0,146,76.80
2013-8-13,80.8,71.2,67.7,71.3,66.9,63.5,95,87,67,29.98,29.74,7,0,146,0.32
2013-8-14,74.3,66.0,57.9,65.2,56.1,49.4,92,72,45,30.07,29.79,11,1,146,28.16
2013-8-15,81.6,63.7,54.1,57.0,52.9,-34.6,93,72,34,30.18,29.52,6,0,237,0.00
2013-8-16,87.7,66.7,56.6,60.7,55.0,23.1,91,71,24,30.25,29.48,4,0,237,0.00
2013-8-17,85.7,68.6,58.5,63.2,58.0,54.2,93,72,35,30.32,30.24,4,0,237,0.00
2013-8-18,81.2,69.1,62.8,65.6,61.3,58.9,89,77,49,30.31,30.17,0,0,237,0.00
2013-8-19,81.2,69.6,61.9,66.7,62.3,59.1,93,79,50,30.17,30.06,0,0,237,0.00
2013-8-20,88.8,72.9,64.3,66.0,63.0,55.0,94,75,39,30.18,30.08,5,0,237,0.00
2013-8-21,91.2,74.4,64.7,67.9,63.4,58.3,91,72,35,30.22,30.09,4,0,237,0.00
2013-8-22,81.1,72.4,67.9,73.0,68.0,64.1,95,86,67,30.11,29.90,7,0,237,0.20
2013-8-23,80.4,71.9,64.7,69.7,61.4,51.1,94,72,39,30.16,29.92,9,1,237,4.80
2013-8-24,84.7,67.5,58.1,59.2,53.0,48.7,82,62,33,30.39,30.16,7,0,237,4.80
2013-8-25,86.3,67.9,56.3,62.1,55.9,49.3,93,71,29,30.43,30.25,6,0,237,2.40
2013-8-26,78.4,69.5,20.6,76.1,62.3,-31.6,95,80,1,30.26,25.94,175,0,239,16.96
2013-8-27,83.5,72.9,68.6,70.1,68.0,0.0,97,86,56,65.20,29.85,0,0,239,0.00
2013-8-28,90.4,73.0,68.0,71.7,68.3,65.7,94,87,45,29.95,29.89,0,0,239,0.00
2013-8-29,81.0,71.5,67.2,70.8,67.4,65.7,96,88,62,30.07,29.95,0,0,239,0.00
2013-8-30,87.5,73.3,67.4,70.3,66.9,65.1,95,82,49,30.08,29.90,0,0,239,0.00
2013-8-31,84.6,76.4,71.4,73.4,71.4,69.7,95,85,65,29.90,29.84,5,0,239,0.01
2013-9-1,86.7,77.0,73.2,73.6,72.0,69.6,94,85,63,29.90,29.85,6,0,239,0.23
2013-9-2,83.0,75.0,70.9,75.7,72.0,68.8,96,91,72,29.88,29.75,4,0,239,0.71
2013-9-3,78.2,70.0,62.6,69.6,65.3,57.5,96,86,53,29.92,29.76,9,0,239,0.02
2013-9-4,82.6,67.3,59.9,61.8,58.8,54.2,95,77,41,30.02,29.90,9,0,239,24.48
2013-9-5,74.5,66.0,56.6,62.5,55.3,44.2,92,71,37,30.19,29.94,8,0,239,24.48
2013-9-6,73.3,58.3,49.9,50.0,45.5,40.3,86,65,35,30.28,30.15,6,0,239,24.48
2013-9-7,80.5,61.2,49.6,60.2,51.6,47.1,93,74,35,30.15,29.92,6,0,239,24.48
2013-9-8,77.3,67.0,57.2,63.1,55.9,44.1,86,69,39,30.13,29.84,12,0,239,24.48
2013-9-9,74.3,60.2,49.0,56.2,48.6,44.4,90,68,41,30.27,30.13,0,0,239,24.48
2013-9-10,83.3,69.7,62.0,72.9,65.9,56.2,97,88,69,30.21,30.09,0,0,239,0.16
2013-9-11,94.9,79.7,71.0,76.6,72.0,67.3,95,80,48,30.15,30.02,0,0,239,28.32
2013-9-12,82.8,75.8,69.0,76.4,71.4,67.5,95,86,77,30.04,29.73,0,0,239,0.80
2013-9-13,77.0,66.8,55.7,67.6,62.9,0.0,97,88,52,29.87,29.66,6,0,239,0.39
2013-9-14,86.8,55.7,49.8,54.3,49.9,-36.9,95,82,11,42.71,26.46,1,0,239,1.68
2013-9-15,72.8,56.7,45.9,55.1,49.2,44.8,96,79,42,30.23,30.11,0,0,239,1.68
2013-9-16,69.9,59.0,50.8,57.7,54.0,44.4,96,84,52,30.28,30.06,0,0,239,1.68
2013-9-17,68.3,52.3,44.0,48.9,43.1,39.2,92,73,40,30.45,30.28,0,0,239,1.68
2013-9-18,75.7,55.7,44.7,53.2,46.6,43.2,96,76,33,30.37,30.20,0,0,239,1.68
2013-9-19,78.8,59.2,49.0,58.4,51.3,46.2,96,79,33,30.21,30.10,0,0,239,1.68
2013-9-20,81.9,62.5,50.9,61.7,54.6,49.3,96,79,37,30.13,30.03,0,0,239,1.68
2013-9-21,75.3,64.6,57.4,67.1,61.0,55.9,97,89,69,30.05,29.69,4,0,239,0.91
2013-9-22,68.1,61.0,50.8,67.0,55.9,44.8,98,84,57,29.94,29.67,0,0,239,0.32
2013-9-23,63.7,53.0,46.0,48.7,44.5,39.8,90,74,47,30.07,29.93,1,0,8,0.00
2013-9-24,70.3,53.3,43.5,54.7,45.7,0.0,95,78,39,30.07,29.90,0,0,230,0.00
2013-9-25,70.5,56.8,49.4,56.0,48.1,44.4,92,74,44,29.98,29.91,0,0,230,0.00
2013-9-26,70.0,59.9,54.3,56.2,53.5,50.2,94,81,52,30.14,29.97,0,0,230,0.00
2013-9-27,65.8,57.0,49.9,56.2,52.6,49.1,98,86,68,30.30,30.14,0,0,230,0.00
2013-9-28,76.1,59.7,51.2,56.3,52.7,50.1,98,80,42,30.36,30.27,0,0,230,0.00
2013-9-29,76.0,60.0,50.8,59.9,52.8,49.5,97,80,45,30.28,30.11,0,0,230,0.01
2013-9-30,74.6,58.3,49.8,57.0,51.7,48.6,96,81,44,30.13,30.00,0,0,230,0.24
2013-10-1,78.7,63.0,51.3,61.3,55.2,50.0,96,78,44,30.04,29.93,0,0,230,0.24
2013-10-2,80.8,65.8,55.2,62.2,57.9,53.6,95,78,50,30.05,29.95,2,0,230,0.24
2013-10-3,78.7,65.0,53.7,60.4,55.5,49.9,93,73,37,30.16,30.05,0,0,230,0.24
2013-10-4,83.4,67.6,60.0,67.3,61.4,57.8,93,82,52,30.10,30.01,0,0,230,0.24
2013-10-5,78.3,67.9,64.1,65.6,63.0,61.3,92,85,61,30.14,30.07,0,0,230,0.24
2013-10-6,67.5,64.9,62.2,64.8,63.4,61.2,98,95,90,30.15,30.08,0,0,230,0.34
2013-10-7,72.6,65.6,56.5,70.0,64.6,51.6,99,96,84,30.08,29.78,7,0,230,0.84
2013-10-8,64.3,54.7,48.5,52.5,47.8,41.5,96,80,47,30.37,29.99,6,0,230,28.56
2013-10-9,66.1,53.7,47.4,48.1,45.6,42.3,90,75,47,30.45,30.34,0,0,230,11.90
2013-10-10,59.7,53.5,49.6,54.3,50.1,46.7,93,88,81,30.34,30.14,0,0,6,0.00
2013-10-11,69.7,60.6,55.4,60.2,55.4,50.3,92,83,65,30.15,30.08,0,0,6,0.00
2013-10-12,74.1,61.3,53.9,56.5,49.9,44.7,84,67,44,30.35,30.14,8,0,9,0.00
2013-10-13,69.7,58.0,51.0,53.4,51.3,48.6,94,80,49,30.42,30.33,3,0,9,0.00
2013-10-14,70.9,55.1,46.9,53.4,48.7,45.5,95,81,44,30.40,30.27,0,0,9,0.00
2013-10-15,76.1,57.6,50.3,57.5,50.1,42.7,96,79,46,30.29,30.15,0,0,9,0.00
2013-10-16,66.2,57.3,51.3,57.9,51.9,46.6,93,83,66,30.15,29.94,0,0,9,0.00
2013-10-17,75.2,64.6,59.7,62.5,59.4,55.3,96,85,51,29.95,29.71,0,0,9,0.01
2013-10-18,66.3,60.6,50.3,63.1,51.5,41.5,96,74,41,30.00,29.68,3,0,80,0.10
2013-10-19,65.5,53.0,44.6,54.3,45.7,41.3,94,78,43,30.00,29.76,5,0,80,0.13
2013-10-20,59.9,52.6,46.1,53.7,44.2,35.6,96,76,41,30.07,29.76,5,0,80,0.01
2013-10-21,73.6,51.6,42.3,47.1,41.9,0.0,94,73,26,30.16,30.00,0,0,240,7.05
2013-10-22,63.2,52.7,32.0,52.8,47.2,26.9,96,82,52,30.00,0.00,175,0,240,0.00
2013-10-23,56.9,45.9,39.2,43.6,39.4,31.8,95,80,44,29.83,29.63,0,0,240,0.00
2013-10-24,53.0,43.8,38.6,39.4,34.9,28.5,92,73,42,29.97,29.73,8,0,240,0.00
2013-10-25,50.1,43.2,38.9,36.2,32.7,29.8,85,67,47,30.21,29.97,5,0,240,0.00
2013-10-26,54.4,43.9,35.5,38.0,34.6,29.8,96,73,41,30.20,29.89,5,0,240,0.00
2013-10-27,54.9,48.5,42.9,36.0,34.0,30.3,76,58,40,30.11,29.84,3,0,240,0.00
2013-10-28,60.2,46.4,37.0,36.9,35.4,31.1,92,68,37,30.34,30.11,3,0,240,0.00
2013-10-29,142.2,43.8,0.1,99.9,28.0,-57.4,77,56,2,34.02,24.19,48,0,242,3.01
2013-10-30,76.9,47.0,0.1,99.9,33.5,-58.0,96,65,1,31.80,28.73,141,0,248,13.16
2013-10-31,62.5,53.2,44.6,60.2,51.5,0.0,96,94,92,30.32,29.82,0,0,247,0.18
2013-11-1,128.6,61.6,53.4,99.9,56.6,-4.8,98,86,8,33.40,29.55,9,0,240,23.04
2013-11-2,136.2,35.2,0.0,99.9,16.6,-57.5,97,31,2,29.80,29.48,105,0,240,0.01
2013-11-3,141.9,20.4,-54.5,48.4,-0.5,-53.3,31,1,2,31.70,28.24,50,0,241,2.72
2013-11-4,131.2,15.7,0.1,21.1,-0.7,-48.9,88,1,2,24.19,0.71,51,1,240,7.69
2013-11-17,60.0,59.6,59.1,59.1,58.7,58.1,98,97,96,0.00,0.00,0,0,0,0.00
2013-11-18,70.3,56.7,25.8,60.9,41.1,-49.3,99,61,2,33.02,0.00,30,0,246,14.19
2013-11-19,121.6,38.8,0.2,91.8,19.7,-57.6,76,47,1,32.84,0.00,191,1,246,19.84
2013-11-20,110.3,31.1,0.2,91.6,14.7,-57.6,79,50,1,33.59,0.00,143,0,248,20.00
2013-11-21,60.5,38.8,0.2,42.7,20.6,-57.2,91,50,1,31.94,31.61,123,0,239,14.31
2013-11-22,112.0,47.6,0.2,76.5,32.4,-57.2,97,67,1,33.07,0.00,191,1,247,19.84
2013-11-23,93.8,37.2,-25.5,59.2,20.2,-54.0,94,53,1,0.00,40.00,175,2,248,0.01
2013-11-24,148.8,23.2,0.1,99.9,6.0,-58.7,78,47,1,30.99,30.52,174,6,248,0.02
2013-11-25,54.2,27.1,18.8,20.1,14.4,-55.1,86,61,2,0.00,40.00,10,1,239,17.95
2013-11-26,135.2,35.1,0.1,99.9,19.4,-57.5,97,56,2,32.79,0.00,150,1,245,28.19
2013-11-27,60.0,44.7,30.8,59.7,44.1,24.7,100,98,78,0.00,40.00,14,3,198,2.99
2013-11-28,30.6,27.7,25.4,25.7,18.2,11.6,85,68,48,0.00,40.00,18,3,198,83.76
2013-11-29,33.6,28.7,24.5,23.9,21.2,17.8,86,74,62,0.00,40.00,5,0,198,83.76
2013-11-30,36.4,28.4,19.3,28.2,19.3,14.9,88,70,42,0.00,40.00,7,0,198,83.76
2013-12-1,49.6,39.8,33.5,37.4,33.5,27.9,91,79,59,0.00,40.00,2,0,198,83.76
2013-12-2,46.7,38.6,33.6,39.7,35.3,31.4,98,88,74,0.00,40.00,0,0,198,83.76
2013-12-3,49.4,38.7,32.5,40.0,36.1,32.2,100,91,66,0.00,40.00,5,0,198,83.76
2013-12-4,52.7,42.2,32.7,40.1,36.5,31.4,95,81,60,0.00,40.00,5,0,198,83.76
2013-12-5,55.3,51.0,45.3,54.5,49.6,40.1,100,95,82,0.00,40.00,0,0,198,0.06
2013-12-6,54.8,44.4,34.3,54.4,43.7,33.9,100,97,92,0.00,40.00,10,1,198,0.46
2013-12-7,38.3,33.2,27.3,34.7,30.4,22.9,100,90,72,0.00,40.00,6,0,198,0.05
2013-12-8,33.6,28.8,23.5,28.3,23.5,20.1,92,81,67,0.00,40.00,6,0,198,97.44
2013-12-9,38.1,34.3,29.9,37.2,33.3,28.1,100,96,92,0.00,40.00,9,0,198,0.10
2013-12-10,36.3,32.4,25.9,34.9,30.0,17.8,98,91,71,0.00,40.00,12,1,198,99.84
2013-12-11,31.2,26.7,23.0,22.8,19.4,16.9,82,74,64,0.00,40.00,10,2,198,99.84
2013-12-12,25.3,21.4,14.4,19.4,12.9,8.8,84,70,54,0.00,40.00,12,1,198,99.84
2013-12-13,41.6,25.5,0.2,21.7,15.3,-8.1,83,64,57,0.00,40.00,13,2,198,0.01
2013-12-14,26.0,23.1,20.2,23.6,19.2,14.5,94,85,68,0.00,40.00,12,2,191,100.08
2013-12-15,37.4,30.4,25.1,34.8,27.6,23.5,100,89,73,0.00,40.00,13,2,22,0.11
2013-12-16,30.3,24.1,17.1,23.7,14.8,11.5,81,68,54,0.00,40.00,13,2,16,102.72
2013-12-17,25.6,20.7,13.9,22.5,17.8,10.1,98,88,77,0.00,40.00,8,0,9,102.72
2013-12-18,34.2,26.0,17.9,26.0,21.6,17.0,97,84,66,0.00,40.00,10,1,18,0.13
2013-12-19,43.5,34.6,26.2,32.7,27.2,21.8,88,75,56,0.00,40.00,7,0,18,0.04
2013-12-20,48.6,42.0,35.4,36.7,34.2,31.4,88,74,59,0.00,40.00,6,0,18,106.80
2013-12-21,56.8,48.5,39.4,51.7,44.1,36.4,96,85,70,0.00,40.00,7,0,18,0.01
2013-12-22,66.0,61.3,53.1,63.5,58.8,51.9,100,92,75,0.00,40.00,12,3,22,0.01
2013-12-23,59.3,50.6,36.5,58.4,50.0,35.0,100,98,92,0.00,40.00,10,1,13,0.98
2013-12-24,36.4,30.5,21.6,34.9,26.2,11.8,100,84,64,0.00,40.00,9,2,13,0.00
2013-12-25,27.3,20.9,14.0,17.8,12.3,8.6,85,69,50,0.00,40.00,9,0,14,0.01
2013-12-26,34.1,29.0,24.0,29.6,25.1,17.2,91,85,74,0.00,40.00,9,1,10,0.02
2013-12-27,37.9,31.7,26.9,28.0,24.3,21.2,92,74,54,0.00,40.00,14,2,15,0.00
2013-12-28,48.6,37.7,28.7,32.0,28.5,25.7,92,71,46,0.00,40.00,7,1,15,0.00
2013-12-29,43.1,39.8,37.0,41.0,35.5,30.9,100,85,70,29.68,0.00,16,1,21,1.00
2013-12-30,41.0,32.7,17.3,39.3,27.4,12.4,100,81,59,30.18,29.67,14,2,21,0.00
2013-12-31,29.9,22.6,16.3,26.1,15.9,10.9,94,76,58,30.23,30.03,13,1,21,0.00
2014-1-1,30.6,25.1,19.3,23.8,16.6,11.5,83,70,58,30.39,30.22,9,0,21,0.00
2014-1-2,28.3,22.3,6.6,23.9,19.9,4.9,98,91,82,30.27,29.71,12,1,21,0.00